Preview of NWS' New Version of Forecast
This preview is not operational and should not be used for support decisions.

Regional Weather Roundup (RWR)

Issued by National Weather Service (NWS)

                            
000
ASUS45 KCYS 201710
RWRWY 

WYOMING REGIONAL WEATHER ROUNDUP
NATIONAL WEATHER SERVICE CHEYENNE WY
1100 AM MDT TUE AUG 20 2019

NOTE:  "FAIR" INDICATES FEW OR NO CLOUDS BELOW 12,000 FEET
WITH NO SIGNIFICANT WEATHER AND/OR OBSTRUCTIONS TO VISIBILITY.

WYZ001-201800-
...YELLOWSTONE NATIONAL PARK...
  
CITY           SKY/WX    TMP DP  RH WIND       PRES   REMARKS
LK YELLOWSTONE   N/A     64  43  46 CALM      30.40S                  
W YELLOWSTONE  NOT AVBL                                               

$$
WYZ002>013-054>058-071-098>099-201800-
...NORTHERN WYOMING...
  
CITY           SKY/WX    TMP DP  RH WIND       PRES   REMARKS
JACKSON        MOSUNNY   68  38  33 S5        30.30F                  
CODY           SUNNY     72  47  40 NE8       30.21S                  
GREYBULL       SUNNY     80  44  27 CALM      30.12R                  
WORLAND        SUNNY     79  45  29 VRB5      30.13S                  
SHERIDAN       MOSUNNY   81  47  30 VRB6      30.14F                  
BUFFALO        SUNNY     79  46  31 E8        30.22S                  
GILLETTE       MOSUNNY   79  51  37 N9        30.16S                  
HULETT         FAIR      77  50  38 E13G20    30.19R                  
NEWCASTLE      FAIR      84  45  24 SW8       30.15S                  

$$
WYZ014>020-022>026-101>103-201800-
...CENTRAL WYOMING...
  
CITY           SKY/WX    TMP DP  RH WIND       PRES   REMARKS
BIG PINEY      SUNNY     72  31  22 VRB5      30.34S                  
PINEDALE       SUNNY     72  30  21 CALM      30.35S                  
DUBOIS         FAIR      77  28  16 E5        30.32S                  
LANDER         PTSUNNY   80  38  22 N6        30.22F                  
RIVERTON       PTSUNNY   77  32  19 VRB3      30.21S                  
CASPER         SUNNY     80  50  34 VRB3      30.20F                  
DOUGLAS        SUNNY     82  46  28 VRB5      30.18S                  

$$
WYZ021-027>030-104>119-201800-
...SOUTHERN WYOMING...
  
CITY           SKY/WX    TMP DP  RH WIND       PRES   REMARKS
EVANSTON       SUNNY     77  21  12 S13       30.32S                  
KEMMERER       SUNNY     77  19  11 SW5       30.35S                  
FORT BRIDGER   NOT AVBL                                               
ROCK SPRINGS   SUNNY     76  26  15 VRB3      30.31S                  
DIXON          FAIR      77  30  17 S8        30.32S                  
RAWLINS        SUNNY     80  27  14 E5        30.31S                  
SARATOGA       FAIR      81  30  16 E6        30.34F                  
LARAMIE        SUNNY     82  26  13 VRB6      30.33F                  
CHEYENNE       MOSUNNY   91  26   9 CALM      30.23S                  
TORRINGTON     MOSUNNY   85  66  53 E9        30.10S                  
PINE BLUFFS    FAIR      90  34  13 N9        30.16R                  

$$